TimePST,TemperatureF,Dew PointF,Humidity,Sea Level PressureIn,VisibilityMPH,Wind Direction,Wind SpeedMPH,Gust SpeedMPH,PrecipitationIn,Events,Conditions,WindDirDegrees,DateUTC
12:27 AM,37.4,28.4,70,30.07,10.0,North,11.5,-,N/A,,Scattered Clouds,360,2013-12-03 08:27:00
12:53 AM,36.0,26.1,67,30.10,10.0,NNW,11.5,-,N/A,,Scattered Clouds,340,2013-12-03 08:53:00
1:53 AM,35.1,25.0,67,30.12,10.0,North,11.5,-,N/A,,Scattered Clouds,350,2013-12-03 09:53:00
2:53 AM,36.0,27.0,70,30.13,10.0,North,10.4,-,N/A,,Mostly Cloudy,350,2013-12-03 10:53:00
3:38 AM,37.4,26.6,65,30.12,10.0,North,12.7,-,N/A,,Overcast,350,2013-12-03 11:38:00
3:53 AM,37.0,27.0,67,30.15,10.0,North,19.6,-,N/A,,Overcast,350,2013-12-03 11:53:00
4:36 AM,37.4,24.8,60,30.14,10.0,North,13.8,-,N/A,,Mostly Cloudy,360,2013-12-03 12:36:00
4:53 AM,37.0,26.1,65,30.17,10.0,North,12.7,-,N/A,,Mostly Cloudy,360,2013-12-03 12:53:00
5:53 AM,36.0,25.0,64,30.19,10.0,North,17.3,-,N/A,,Scattered Clouds,360,2013-12-03 13:53:00
6:53 AM,35.1,21.9,59,30.22,10.0,North,15.0,-,N/A,,Partly Cloudy,10,2013-12-03 14:53:00
7:53 AM,34.0,23.0,64,30.23,10.0,North,18.4,27.6,N/A,,Clear,10,2013-12-03 15:53:00
8:53 AM,36.0,21.9,57,30.25,10.0,NNE,23.0,-,N/A,,Partly Cloudy,20,2013-12-03 16:53:00
9:53 AM,37.9,23.0,55,30.28,10.0,North,18.4,-,N/A,,Partly Cloudy,10,2013-12-03 17:53:00
10:53 AM,39.0,24.1,55,30.29,10.0,North,17.3,-,N/A,,Partly Cloudy,360,2013-12-03 18:53:00
11:53 AM,39.9,25.0,55,30.29,10.0,North,13.8,-,N/A,,Partly Cloudy,350,2013-12-03 19:53:00
12:53 PM,41.0,21.0,45,30.28,10.0,NNE,15.0,-,N/A,,Partly Cloudy,20,2013-12-03 20:53:00
1:53 PM,39.9,21.0,47,30.29,10.0,North,16.1,-,N/A,,Partly Cloudy,350,2013-12-03 21:53:00
2:53 PM,39.9,21.0,47,30.29,10.0,North,12.7,-,N/A,,Partly Cloudy,350,2013-12-03 22:53:00
3:53 PM,37.9,21.9,53,30.30,10.0,North,12.7,-,N/A,,Partly Cloudy,360,2013-12-03 23:53:00
4:53 PM,36.0,21.0,55,30.30,10.0,North,8.1,-,N/A,,Partly Cloudy,360,2013-12-04 00:53:00
5:53 PM,36.0,21.0,55,30.31,10.0,NNE,8.1,-,N/A,,Clear,30,2013-12-04 01:53:00
6:53 PM,33.1,21.0,61,30.31,10.0,NNE,6.9,-,N/A,,Clear,20,2013-12-04 02:53:00
7:53 PM,34.0,21.9,61,30.32,10.0,North,8.1,-,N/A,,Clear,10,2013-12-04 03:53:00
8:53 PM,33.1,23.0,66,30.33,10.0,North,8.1,-,N/A,,Clear,10,2013-12-04 04:53:00
9:53 PM,35.1,24.1,64,30.33,10.0,NNE,5.8,-,N/A,,Clear,30,2013-12-04 05:53:00
10:53 PM,30.9,23.0,72,30.34,10.0,NNE,5.8,-,N/A,,Clear,30,2013-12-04 06:53:00
11:53 PM,33.1,25.0,72,30.33,10.0,NE,5.8,-,N/A,,Clear,40,2013-12-04 07:53:00